Wind_Speed
44 37 33 33 33 26 23 26 27 30 26 27 28 31 31 27 27 31 40 48 46 45 45 23 9 8 5 2 3 7 3 2 14 23 9 14 39 54 54 59 64 60 60 48 56 61 61 60 48 44 44 46 40 46
42 34 33 32 31 22 22 25 25 28 26 26 27 29 31 30 29 30 38 48 47 47 43 20 13 8 7 7 11 6 10 8 2 14 19 22 33 55 55 54 58 56 54 51 52 56 62 58 50 47 41 46 44 42
38 35 33 32 27 21 22 24 23 26 28 27 26 28 32 29 26 28 36 41 51 48 41 21 21 17 15 9 11 11 11 18 15 22 17 22 34 50 54 51 56 55 46 50 54 58 60 61 56 49 44 43 47 42
36 34 33 30 25 19 21 22 21 24 27 28 26 27 27 29 28 27 33 37 42 51 38 20 22 18 14 11 6 5 7 21 11 27 17 25 28 40 48 52 50 54 50 55 54 61 51 66 54 54 50 45 46 47
34 34 32 29 21 18 19 21 20 23 25 27 27 26 26 26 27 25 28 34 40 45 43 18 17 11 12 8 4 12 5 16 21 27 24 22 27 25 36 40 43 48 51 55 56 55 53 65 51 54 52 49 47 49
35 33 29 25 19 15 17 20 21 23 25 26 26 25 24 23 24 21 24 31 35 40 45 29 16 11 10 11 12 15 3 4 1 18 21 19 17 24 33 30 30 47 45 53 59 53 62 59 58 44 56 54 49 51
35 29 28 22 19 15 16 19 20 22 24 25 26 24 21 20 21 19 22 27 32 34 37 39 25 7 8 9 9 11 10 9 11 15 14 20 17 16 28 38 38 38 46 48 58 50 59 65 72 43 57 55 53 48
32 31 25 22 19 14 17 19 19 21 23 25 25 23 20 17 17 17 17 20 26 31 32 34 36 25 10 11 12 9 6 10 13 9 17 19 18 14 19 28 46 42 46 47 51 55 52 67 80 54 53 57 54 52
32 25 20 21 18 10 16 19 20 22 25 24 22 21 18 15 14 15 12 15 18 24 29 31 31 34 31 17 14 14 12 8 6 8 13 16 18 19 19 14 25 47 37 41 41 60 42 58 59 60 68 54 57 53
26 21 20 21 6 11 16 18 21 23 24 23 20 20 17 14 13 13 12 11 14 18 22 27 27 27 29 31 19 9 10 10 9 3 7 10 11 14 14 6 16 37 25 31 39 51 52 54 59 50 63 65 58 53
24 22 23 8 7 15 16 19 22 23 23 23 21 19 14 12 11 11 12 13 12 14 17 20 23 22 22 24 25 24 19 11 9 1 2 6 5 5 7 11 13 9 8 18 30 34 43 57 63 58 57 64 62 56
22 18 8 6 11 15 18 20 22 24 24 23 19 14 10 9 8 8 10 15 14 12 11 13 16 17 16 17 18 19 19 16 14 13 8 3 4 5 2 5 11 10 6 1 12 24 27 37 51 55 58 69 69 71
16 5 5 10 11 16 18 20 22 22 22 20 17 4 5 9 6 8 15 15 10 13 11 8 10 11 12 10 12 13 13 13 12 12 10 8 4 3 7 1 6 13 15 11 10 11 16 31 39 45 47 53 62 74
2 5 9 10 14 16 19 20 21 21 23 20 16 5 11 14 9 15 17 14 15 14 13 6 9 10 9 6 7 12 11 9 8 8 8 6 6 5 6 5 4 4 5 7 15 20 22 20 28 43 53 51 57 59
3 5 9 12 15 17 19 22 18 22 20 16 11 13 24 16 13 13 12 12 11 10 10 10 9 9 5 1 2 10 10 10 10 9 8 9 8 10 11 8 4 5 5 5 8 14 23 29 27 27 30 48 57 59
3 6 10 11 13 16 21 23 16 18 20 16 16 16 16 16 16 14 16 18 13 10 6 5 8 10 11 6 10 11 9 9 9 10 10 8 7 8 9 13 15 12 10 11 10 10 12 21 32 38 38 41 40 40
5 8 10 11 14 19 21 18 23 11 16 19 17 14 12 13 13 13 13 14 14 8 2 2 7 8 13 13 10 10 9 8 7 7 8 10 11 11 10 11 13 17 20 19 17 16 15 15 16 23 33 44 46 44
7 10 9 11 14 17 20 21 19 18 18 17 16 15 14 14 12 10 9 8 9 8 4 4 6 5 5 6 7 9 12 10 8 9 9 10 11 12 13 14 16 17 15 19 22 23 23 21 21 23 23 27 35 46
9 10 10 11 14 17 18 19 20 18 18 19 17 15 14 14 14 13 10 8 6 6 5 6 8 10 9 10 12 12 12 11 11 13 13 13 13 14 15 17 18 20 19 20 20 22 26 27 28 28 28 29 32 32
9 10 11 13 15 16 17 19 21 22 20 16 15 13 12 11 12 11 9 6 4 4 4 6 8 8 9 11 12 12 12 12 13 14 14 14 16 17 16 16 15 16 16 18 21 22 23 25 27 29 30 31 34 36
8 9 12 13 15 15 16 18 19 18 17 15 14 14 13 11 12 12 6 5 6 6 4 4 5 5 6 10 12 14 15 15 15 16 16 15 15 17 18 20 21 21 23 24 26 28 30 32 31 31 33 34 35 35
8 10 14 15 16 17 17 19 19 18 18 12 11 12 10 9 11 11 10 10 11 12 10 11 14 13 14 16 18 21 23 23 22 24 25 24 25 26 29 32 33 34 35 38 39 42 41 41 39 37 36 34 35 38
9 10 11 12 17 18 19 22 18 17 15 12 11 14 11 13 12 14 14 18 18 17 19 21 19 15 11 14 18 21 26 33 31 25 23 26 33 36 38 39 41 43 46 48 48 47 45 45 44 43 42 41 39 41
9 10 13 16 21 21 25 15 10 13 10 13 8 12 11 15 19 14 12 18 22 23 17 18 13 11 18 25 27 27 34 25 26 34 40 39 36 36 37 38 38 38 38 39 39 40 42 43 45 47 45 45 42 44
13 14 17 16 9 22 16 13 18 20 22 20 14 13 13 14 14 20 19 16 15 22 24 22 16 26 29 28 30 34 33 39 41 35 31 29 28 29 30 30 31 32 32 32 31 31 32 34 37 40 43 45 46 47
15 15 13 14 15 11 14 16 20 24 19 17 14 19 23 23 22 23 21 15 15 17 23 26 27 27 25 27 27 31 28 27 26 25 24 24 24 25 25 25 26 25 25 26 26 24 24 24 25 27 30 32 34 37
12 11 15 21 19 12 28 20 18 19 16 17 16 17 20 22 23 23 21 19 18 19 21 23 25 26 26 24 22 22 23 23 22 21 20 19 19 20 20 22 21 20 22 22 20 18 18 17 18 20 23 25 26 29
11 14 18 18 16 17 27 20 17 9 9 14 19 20 20 22 23 22 22 20 18 18 20 21 22 21 20 20 21 22 22 21 21 21 21 19 16 17 19 18 16 16 19 18 16 14 13 13 12 12 14 17 19 21
13 13 12 11 23 25 24 17 12 12 15 19 20 18 19 24 23 23 24 24 24 24 24 24 25 25 24 22 22 23 23 22 21 21 19 18 16 16 16 16 16 15 14 15 15 14 13 12 11 11 9 8 9 10
25 20 21 29 27 28 19 15 13 16 20 19 17 17 22 23 22 22 23 23 23 24 25 26 27 28 26 25 25 25 25 24 24 24 23 22 22 21 21 20 19 18 17 17 16 15 14 14 13 11 10 10 10 9
24 22 26 27 26 26 17 15 15 20 22 19 17 20 23 23 24 25 25 25 26 28 28 29 29 29 29 28 27 27 27 27 27 27 28 28 28 27 27 25 23 22 21 21 21 21 20 18 16 15 14 13 11 11
17 23 32 28 26 26 26 25 23 23 23 22 20 21 22 25 25 26 26 25 26 27 28 27 28 29 30 32 33 33 32 32 31 30 29 28 29 30 31 32 32 30 28 27 25 24 22 21 21 21 21 21 19 17
21 23 25 24 26 27 27 24 24 23 22 23 24 23 24 25 24 25 25 26 26 26 27 27 28 29 30 31 30 30 30 31 32 33 35 36 37 34 31 30 31 32 33 32 33 34 33 32 30 27 24 24 25 24
Wind_Direction
328 343 331 331 335 331 331 338 341 343 338 346 354 359 2 351 345 347 357 355 351 351 356 357 2 62 84 165 197 157 222 338 43 40 118 174 183 194 196 200 205 207 211 203 201 206 205 196 190 196 195 196 193 194
332 337 330 330 334 324 329 337 342 346 342 337 348 355 1 355 347 350 359 2 2 2 2 25 45 51 53 108 127 153 81 74 71 45 123 157 177 188 194 197 203 203 206 209 206 212 206 200 193 196 189 194 198 199
333 333 332 329 332 321 328 334 341 349 349 341 338 345 351 355 350 350 4 7 11 11 15 33 36 66 94 112 145 126 88 121 79 84 162 158 170 184 193 197 202 200 198 200 208 207 212 202 196 193 185 192 200 203
331 330 330 328 328 320 324 329 337 348 350 348 343 341 348 355 353 355 5 3 5 19 23 44 74 81 88 140 99 58 92 97 71 68 156 167 171 183 190 199 204 201 203 201 206 208 207 204 199 193 185 188 198 203
325 329 329 328 323 315 323 328 334 342 347 349 346 345 344 351 355 359 4 6 12 18 28 46 71 95 89 113 9 4 316 89 83 57 149 158 192 173 189 201 202 203 209 207 207 208 204 207 199 198 189 188 194 199
324 326 328 328 316 309 318 326 333 337 343 347 346 345 342 348 355 2 6 14 14 18 26 33 44 43 60 50 38 34 179 221 311 48 89 180 201 184 183 186 194 209 210 210 211 207 205 208 202 195 190 190 190 196
324 324 325 318 315 304 309 325 334 336 339 344 343 345 342 343 351 4 13 20 17 18 22 32 34 14 341 354 351 14 31 15 313 341 16 82 105 122 191 197 199 208 214 214 214 205 210 208 210 192 198 195 196 196
324 324 320 317 318 300 312 326 330 336 340 341 342 344 342 343 347 359 6 17 15 19 20 27 32 35 37 21 24 13 10 354 356 333 349 4 32 34 78 157 195 203 212 211 212 212 212 211 218 200 199 197 200 201
324 319 316 322 317 305 315 321 332 337 339 339 341 343 342 342 341 348 357 7 11 11 15 21 27 31 37 40 39 51 61 42 19 356 357 14 3 8 21 53 172 204 213 210 213 210 210 217 222 226 235 197 199 205
319 316 312 320 314 330 320 331 336 338 337 337 338 341 344 342 335 338 346 350 3 5 8 17 22 26 32 37 51 29 33 52 35 71 339 3 27 18 3 141 114 172 177 203 210 217 211 214 225 232 227 231 207 204
315 311 312 304 346 330 330 335 335 337 336 338 337 338 341 337 334 331 335 338 342 351 358 11 17 24 27 34 36 41 50 57 71 81 291 297 335 23 338 332 341 27 108 163 195 205 224 222 213 230 232 230 236 217
313 316 345 348 330 330 331 336 336 336 338 336 331 330 333 341 342 338 331 327 326 325 341 0 15 18 26 31 32 38 43 44 51 40 41 9 316 119 90 325 318 321 324 29 193 201 206 213 218 217 222 224 224 227
323 3 5 337 333 332 336 337 338 341 347 344 340 339 354 344 342 341 343 340 342 332 319 334 356 12 15 21 35 38 30 34 42 43 37 42 54 74 124 204 301 288 282 273 260 264 231 203 203 213 219 224 225 225
57 3 340 330 334 341 343 345 343 344 355 346 340 23 26 12 323 315 320 319 309 317 304 318 332 346 0 8 22 20 14 13 5 355 6 30 18 356 84 109 157 238 232 227 246 252 249 255 218 219 225 227 226 225
8 344 330 340 347 351 355 349 348 356 356 7 9 330 350 342 331 331 317 319 339 337 317 353 336 333 335 303 238 344 347 348 343 344 334 330 337 337 333 320 290 258 228 231 261 250 238 236 246 247 237 223 228 225
1 337 342 350 351 356 354 359 350 10 359 1 356 354 350 349 346 337 330 321 327 317 285 337 315 313 313 289 303 318 321 322 313 308 317 317 310 297 289 291 292 287 280 271 260 256 249 243 237 230 231 237 245 247
354 342 356 358 356 358 358 5 9 338 357 4 2 358 352 358 357 353 350 358 355 346 205 356 317 296 288 302 315 318 333 339 330 310 300 292 295 292 287 283 281 284 286 284 273 271 269 260 254 249 242 242 243 241
352 356 359 354 352 356 1 1 5 3 355 354 355 359 359 354 350 349 353 356 355 19 349 332 308 314 322 325 308 305 317 326 322 315 313 301 293 283 277 277 277 276 272 275 283 286 280 273 265 260 253 245 245 248
0 353 353 346 346 347 349 357 358 352 348 352 352 355 355 354 351 342 347 349 353 348 335 315 307 307 309 304 302 304 304 305 295 292 292 291 289 282 278 272 266 268 271 271 266 263 263 262 262 260 257 253 251 245
353 351 350 342 335 335 343 351 350 348 347 342 344 344 342 341 337 338 338 326 307 298 307 305 308 313 307 303 304 303 307 306 298 297 294 291 286 282 282 280 282 285 289 291 285 282 276 273 270 262 256 255 252 250
348 347 346 337 333 335 341 342 339 339 336 332 334 333 331 331 330 336 353 327 303 298 292 276 283 297 307 299 297 297 298 296 288 284 282 279 282 286 288 288 281 276 280 284 288 289 285 279 271 264 263 259 255 253
341 342 342 340 335 330 332 336 330 328 320 317 320 314 314 307 305 302 300 280 274 271 279 291 292 292 290 291 293 294 297 301 287 276 275 281 286 286 282 277 272 269 269 273 278 281 281 280 278 275 267 261 260 258
337 336 334 331 334 331 323 319 306 298 310 299 290 291 294 308 303 308 300 289 276 271 274 280 290 299 303 319 314 310 306 303 300 278 274 286 297 298 293 286 285 281 280 278 277 277 276 274 272 271 268 265 260 256
322 322 325 338 346 340 324 310 346 346 337 343 337 307 295 339 306 342 317 300 288 281 291 325 306 331 325 312 307 313 310 297 281 295 307 308 302 294 291 288 286 284 283 281 279 277 273 269 268 265 261 260 260 257
325 332 329 315 320 349 338 302 329 344 328 347 344 313 343 342 322 315 320 331 318 274 292 307 296 303 315 311 308 298 295 305 309 310 308 306 304 302 299 296 295 293 293 293 291 286 279 272 267 266 265 263 261 258
331 0 30 357 325 318 355 334 323 328 333 333 327 327 346 347 342 333 330 324 303 294 298 310 316 319 313 310 305 302 302 303 305 307 308 305 303 303 303 307 305 301 302 305 303 298 292 284 276 270 267 263 260 258
9 327 332 340 6 353 1 350 345 344 342 340 351 5 2 352 342 335 334 335 333 328 326 326 326 328 324 323 323 319 319 321 321 319 318 316 317 313 318 320 317 315 316 318 317 312 305 294 285 280 274 269 264 262
11 354 345 355 355 348 6 8 12 19 19 28 21 20 23 25 24 28 29 24 14 4 358 354 358 7 1 354 345 346 350 352 350 353 349 346 340 339 342 335 330 324 330 337 332 327 325 327 321 303 289 280 274 270
62 45 80 20 357 6 17 29 53 56 36 23 17 18 28 23 20 27 31 28 28 25 21 20 26 28 27 21 19 18 18 15 13 13 13 10 6 360 358 358 357 353 347 345 349 354 351 350 349 346 345 334 314 296
13 14 1 357 10 25 37 53 53 30 21 14 14 18 14 17 21 23 29 32 33 34 33 30 32 36 36 32 31 33 31 30 29 29 29 29 30 29 29 25 22 22 21 20 17 12 7 4 0 358 356 351 345 338
15 18 3 349 8 32 49 39 23 18 15 21 31 26 24 27 37 41 42 43 44 45 45 43 39 38 39 42 43 44 44 43 44 44 45 42 41 40 37 33 31 31 31 32 32 31 29 26 22 17 12 8 0 351
27 17 15 23 26 34 37 37 33 32 37 42 35 33 46 49 49 46 44 42 40 39 42 44 45 46 46 46 47 47 47 47 45 43 43 44 46 45 44 44 43 43 43 43 40 38 35 34 35 36 34 30 26 20
18 16 25 31 35 35 40 40 39 42 46 47 49 47 47 48 47 49 50 51 52 51 48 44 43 43 45 46 45 43 43 44 44 44 45 45 45 44 45 45 45 45 46 48 50 50 48 46 44 42 41 39 38 37
Height
5790 5783 5776 5770 5763 5757 5754 5749 5743 5738 5732 5726 5720 5712 5706 5699 5692 5685 5676 5664 5650 5638 5625 5615 5611 5609 5609 5609 5612 5611 5614 5614 5612 5608 5606 5608 5620 5634 5648 5659 5672 5686 5694 5707 5717 5725 5738 5748 5759 5766 5772 5782 5791 5799
5784 5777 5771 5765 5759 5754 5750 5745 5740 5734 5728 5724 5717 5710 5704 5698 5691 5683 5675 5663 5650 5637 5626 5618 5614 5612 5611 5611 5614 5614 5616 5613 5614 5611 5609 5614 5620 5629 5643 5655 5665 5679 5688 5700 5707 5712 5725 5737 5751 5757 5769 5778 5787 5794
5778 5772 5766 5760 5754 5750 5747 5742 5737 5732 5726 5721 5715 5709 5703 5696 5690 5683 5674 5665 5653 5639 5628 5623 5619 5617 5616 5617 5618 5620 5619 5618 5618 5612 5615 5616 5624 5630 5640 5651 5660 5672 5682 5689 5697 5706 5717 5730 5738 5749 5761 5770 5780 5789
5772 5766 5760 5755 5750 5746 5743 5738 5734 5728 5723 5718 5712 5706 5700 5695 5689 5682 5675 5667 5657 5645 5633 5629 5625 5625 5625 5624 5626 5625 5623 5620 5620 5618 5621 5624 5629 5633 5640 5649 5660 5673 5680 5686 5691 5702 5712 5723 5734 5741 5748 5760 5773 5783
5765 5760 5755 5749 5745 5742 5739 5736 5730 5725 5720 5716 5711 5704 5699 5694 5688 5682 5677 5670 5660 5651 5640 5635 5633 5632 5632 5632 5632 5632 5629 5628 5627 5627 5628 5631 5632 5638 5644 5653 5661 5670 5675 5682 5689 5697 5710 5721 5730 5740 5748 5753 5763 5775
5759 5754 5749 5744 5740 5738 5735 5733 5728 5722 5718 5713 5709 5703 5698 5693 5688 5683 5678 5672 5664 5655 5646 5639 5637 5636 5636 5635 5634 5634 5633 5633 5629 5631 5634 5637 5637 5644 5647 5653 5660 5666 5671 5681 5688 5697 5708 5716 5725 5730 5741 5748 5754 5766
5753 5748 5743 5739 5735 5733 5731 5728 5724 5719 5714 5710 5707 5702 5697 5693 5688 5684 5680 5674 5668 5661 5654 5646 5641 5638 5636 5636 5637 5637 5635 5637 5635 5634 5635 5636 5641 5642 5646 5652 5659 5662 5668 5677 5686 5694 5700 5709 5714 5724 5735 5747 5754 5762
5746 5741 5737 5734 5730 5728 5727 5724 5720 5715 5711 5708 5704 5699 5695 5691 5688 5685 5681 5676 5672 5667 5660 5653 5647 5641 5638 5635 5635 5637 5639 5640 5640 5640 5639 5640 5640 5642 5645 5650 5654 5660 5665 5673 5679 5689 5696 5704 5708 5714 5727 5739 5750 5759
5740 5736 5733 5729 5726 5725 5724 5720 5716 5712 5708 5705 5701 5697 5693 5689 5687 5684 5681 5677 5674 5672 5666 5659 5653 5648 5642 5639 5637 5638 5640 5642 5642 5643 5644 5646 5645 5645 5645 5646 5653 5660 5665 5670 5675 5683 5689 5694 5701 5707 5715 5730 5739 5750
5734 5731 5728 5725 5723 5723 5721 5717 5712 5708 5705 5701 5698 5694 5690 5688 5685 5683 5680 5678 5675 5672 5669 5664 5659 5654 5651 5645 5643 5642 5641 5644 5645 5646 5647 5647 5649 5650 5650 5652 5656 5660 5664 5667 5673 5680 5686 5694 5696 5702 5709 5715 5728 5735
5729 5726 5723 5722 5721 5720 5718 5713 5708 5704 5701 5698 5694 5691 5688 5685 5684 5682 5680 5678 5675 5673 5670 5667 5664 5660 5656 5653 5649 5646 5645 5646 5646 5648 5648 5649 5651 5652 5655 5656 5656 5659 5662 5666 5670 5676 5680 5685 5692 5695 5702 5711 5717 5728
5725 5723 5721 5720 5719 5718 5715 5710 5705 5701 5697 5693 5689 5686 5684 5682 5681 5680 5679 5677 5674 5672 5669 5667 5665 5663 5661 5658 5655 5653 5651 5648 5646 5647 5646 5646 5647 5649 5651 5653 5656 5660 5664 5665 5669 5673 5675 5679 5686 5693 5699 5705 5711 5720
5722 5720 5720 5720 5718 5714 5711 5706 5702 5698 5693 5688 5684 5683 5683 5682 5679 5678 5677 5674 5671 5670 5668 5667 5665 5663 5663 5661 5660 5658 5655 5654 5653 5651 5648 5647 5648 5649 5650 5651 5654 5658 5661 5663 5667 5670 5672 5675 5680 5685 5691 5696 5701 5708
5720 5719 5719 5718 5714 5711 5708 5704 5700 5696 5692 5687 5682 5680 5681 5679 5677 5676 5674 5671 5669 5667 5665 5665 5664 5663 5661 5661 5661 5660 5659 5657 5655 5653 5652 5652 5650 5649 5650 5651 5652 5654 5656 5658 5663 5667 5670 5671 5674 5678 5683 5686 5691 5697
5719 5718 5717 5715 5712 5710 5706 5702 5698 5694 5691 5687 5686 5682 5680 5679 5676 5673 5671 5669 5667 5665 5664 5663 5663 5661 5660 5659 5660 5660 5660 5658 5656 5654 5653 5651 5650 5647 5645 5649 5652 5652 5653 5654 5653 5656 5661 5666 5669 5671 5673 5677 5682 5685
5717 5716 5716 5713 5710 5707 5704 5700 5696 5694 5691 5688 5685 5683 5680 5676 5673 5670 5667 5664 5664 5662 5662 5661 5661 5660 5658 5659 5659 5658 5658 5657 5656 5654 5653 5652 5651 5650 5649 5646 5644 5647 5649 5650 5652 5652 5652 5652 5656 5661 5665 5669 5671 5675
5715 5715 5713 5711 5709 5706 5702 5699 5696 5692 5689 5687 5684 5681 5677 5673 5670 5667 5665 5662 5660 5657 5659 5659 5659 5659 5658 5656 5656 5655 5655 5655 5653 5652 5651 5650 5650 5649 5648 5647 5645 5641 5639 5641 5645 5647 5647 5648 5648 5648 5650 5654 5656 5661
5714 5713 5712 5710 5707 5705 5701 5698 5695 5691 5687 5684 5680 5676 5672 5670 5667 5665 5662 5660 5660 5659 5658 5658 5658 5656 5655 5653 5652 5652 5652 5651 5650 5649 5649 5648 5648 5646 5646 5645 5644 5643 5643 5639 5636 5633 5634 5638 5640 5641 5642 5643 5644 5646
5713 5711 5710 5708 5706 5703 5699 5697 5693 5689 5686 5683 5680 5676 5674 5672 5669 5666 5664 5662 5659 5657 5657 5656 5656 5654 5653 5651 5649 5648 5647 5647 5646 5644 5644 5643 5642 5641 5640 5640 5639 5638 5638 5637 5637 5635 5634 5633 5632 5631 5632 5633 5634 5635
5711 5709 5708 5706 5703 5700 5698 5695 5691 5688 5684 5681 5677 5674 5671 5669 5667 5666 5664 5661 5657 5655 5653 5652 5651 5650 5649 5647 5645 5644 5642 5641 5640 5638 5638 5637 5635 5634 5634 5633 5633 5631 5630 5629 5627 5626 5626 5625 5624 5623 5623 5623 5623 5624
5710 5708 5706 5704 5701 5698 5696 5692 5688 5685 5682 5679 5677 5674 5671 5667 5665 5663 5661 5659 5657 5653 5650 5648 5645 5643 5641 5640 5639 5638 5637 5635 5633 5631 5630 5629 5628 5627 5626 5625 5624 5623 5621 5619 5618 5617 5615 5613 5613 5614 5613 5612 5611 5610
5709 5707 5705 5702 5699 5695 5691 5688 5685 5682 5680 5676 5673 5670 5668 5665 5661 5657 5655 5654 5651 5649 5647 5644 5641 5639 5636 5635 5634 5632 5632 5630 5627 5624 5622 5621 5619 5618 5615 5613 5610 5608 5607 5605 5603 5602 5601 5599 5598 5597 5599 5600 5599 5599
5707 5704 5701 5698 5695 5691 5689 5684 5680 5677 5674 5672 5670 5666 5663 5659 5656 5654 5651 5647 5644 5643 5640 5638 5636 5633 5631 5629 5626 5624 5622 5620 5617 5615 5611 5609 5606 5604 5601 5597 5595 5593 5589 5587 5586 5584 5583 5581 5581 5580 5580 5581 5583 5583
5704 5702 5700 5698 5695 5690 5684 5675 5677 5673 5674 5671 5667 5665 5662 5657 5653 5650 5648 5644 5640 5636 5634 5632 5629 5628 5628 5627 5622 5617 5613 5609 5607 5603 5598 5595 5591 5586 5582 5579 5577 5575 5572 5569 5567 5565 5563 5562 5562 5561 5562 5563 5564 5564
5702 5702 5700 5695 5690 5687 5682 5678 5677 5674 5672 5667 5662 5660 5658 5656 5654 5650 5647 5643 5639 5636 5632 5627 5623 5620 5618 5616 5612 5608 5604 5599 5595 5591 5586 5582 5579 5575 5571 5568 5564 5561 5559 5556 5552 5549 5547 5545 5545 5544 5545 5546 5546 5546
5700 5698 5696 5693 5690 5690 5686 5682 5677 5672 5668 5665 5661 5658 5653 5651 5648 5645 5642 5640 5638 5635 5632 5627 5621 5616 5613 5609 5605 5600 5594 5590 5586 5582 5579 5574 5570 5566 5562 5559 5555 5551 5548 5544 5540 5537 5535 5532 5531 5531 5530 5530 5529 5530
5696 5696 5696 5692 5689 5686 5682 5678 5674 5670 5667 5663 5659 5656 5653 5649 5645 5641 5637 5634 5631 5628 5625 5621 5617 5612 5607 5602 5597 5591 5585 5581 5578 5574 5571 5567 5563 5558 5555 5551 5547 5544 5540 5536 5533 5531 5528 5525 5523 5521 5520 5518 5517 5517
5698 5696 5692 5691 5688 5685 5680 5675 5672 5668 5665 5663 5660 5657 5653 5649 5645 5640 5636 5632 5629 5625 5621 5617 5613 5608 5602 5596 5590 5586 5581 5577 5573 5569 5564 5561 5558 5554 5551 5546 5543 5540 5536 5532 5529 5526 5523 5520 5518 5515 5513 5510 5508 5508
5696 5694 5691 5689 5687 5683 5677 5673 5669 5668 5667 5664 5661 5657 5654 5650 5645 5641 5637 5633 5629 5624 5620 5617 5612 5607 5602 5597 5592 5587 5582 5578 5574 5570 5565 5561 5557 5553 5549 5545 5541 5538 5534 5531 5527 5524 5521 5518 5516 5513 5510 5507 5505 5502
5698 5695 5690 5688 5685 5680 5675 5673 5671 5669 5666 5663 5661 5658 5654 5650 5645 5642 5638 5634 5631 5627 5623 5617 5612 5609 5605 5600 5596 5591 5587 5582 5577 5573 5568 5564 5560 5555 5551 5546 5542 5538 5534 5531 5527 5523 5520 5517 5514 5511 5508 5506 5503 5500
5700 5696 5694 5689 5685 5680 5676 5674 5672 5669 5666 5663 5661 5659 5655 5651 5647 5644 5641 5639 5635 5631 5626 5622 5618 5613 5609 5605 5601 5597 5592 5587 5583 5578 5573 5568 5564 5559 5554 5550 5546 5542 5538 5533 5529 5525 5521 5518 5514 5511 5508 5505 5502 5499
5702 5699 5695 5690 5687 5683 5679 5675 5674 5671 5667 5665 5664 5661 5658 5655 5653 5650 5647 5644 5639 5635 5632 5629 5626 5622 5617 5612 5608 5603 5599 5593 5589 5584 5580 5575 5570 5566 5561 5557 5552 5547 5543 5538 5534 5530 5526 5522 5518 5514 5510 5506 5503 5499
5703 5701 5698 5694 5690 5686 5682 5681 5678 5675 5673 5671 5668 5666 5663 5661 5658 5655 5652 5649 5646 5642 5639 5635 5632 5628 5623 5619 5615 5611 5606 5601 5596 5592 5587 5582 5577 5573 5568 5564 5559 5555 5551 5546 5541 5536 5532 5527 5523 5519 5515 5511 5507 5503